Weather History for KPOF - September, 2013

Change the Weather History Date:

Saturday, September 28, 2013

  Actual Average Record
Temperature  
Mean Temperature 72 °F -  
Max Temperature 84 °F 77 °F 95 °F (1939)
Min Temperature 60 °F 53 °F 35 °F (1942)
Cooling Degree Days 7    
Growing Degree Days 22 (Base 50)    
Moisture  
Dew Point 60 °F    
Average Humidity 72    
Maximum Humidity 90    
Minimum Humidity 46    
Precipitation  
Precipitation 0.00 in - - ()
Sea Level Pressure  
Sea Level Pressure 30.02 in    
Wind  
Wind Speed 3 mph (South)    
Max Wind Speed 15 mph    
Max Gust Speed 20 mph    
Visibility 8 miles    
Events      
Averages and records for this station are not official NWS values.
T = Trace of Precipitation, MM = Missing Value Source: NWS Daily Summary

Daily Weather History Graph

Daily Weather History Graph

Search for Another Location

Airport or City:

Trip Planner

Search our weather history database for the weather conditions in past years. The results will help you decide how hot, cold, wet, or windy it might be!

Date:

Astronomy

Sep. 28, 2013 Rise Set
Actual Time 6:54 AM CDT 6:48 PM CDT
Civil Twilight 6:28 AM CDT 7:14 PM CDT
Nautical Twilight 5:58 AM CDT 7:44 PM CDT
Astronomical Twilight 5:28 AM CDT 8:14 PM CDT
Moon 12:49 AM CDT (9/28) 3:00 PM CDT (9/28)
Length of Visible Light 12h 46m
Length of Day
11h 54m
Waning Crescent, 36% of the Moon is Illuminated
Sep 28
Waning Crescent
Oct 4
New
Oct 11
First Quarter
Oct 18
Full
Oct 26
Last Quarter

Hourly Weather History & Observations

Time (CDT) Temp. Heat Index Dew Point Humidity Pressure Visibility Wind Dir Wind Speed Gust Speed Precip Events Conditions
12:53 AM 66.0 °F - 60.1 °F 81% 30.01 in 10.0 mi Calm Calm - N/A   Mostly Cloudy
1:53 AM 64.0 °F - 60.1 °F 87% 30.01 in 9.0 mi Calm Calm - N/A   Clear
2:53 AM 63.0 °F - 59.0 °F 87% 30.01 in 7.0 mi Calm Calm - N/A   Clear
3:53 AM 61.0 °F - 57.9 °F 90% 30.01 in 2.5 mi Calm Calm - N/A   Clear
4:33 AM 60.8 °F - 57.2 °F 88% 30.03 in 5.0 mi Calm Calm - N/A   Clear
4:53 AM 61.0 °F - 57.9 °F 90% 30.02 in 4.0 mi Calm Calm - N/A   Scattered Clouds
5:04 AM 60.8 °F - 57.2 °F 88% 30.03 in 2.5 mi Calm Calm - N/A   Mostly Cloudy
5:12 AM 60.8 °F - 57.2 °F 88% 30.03 in 4.0 mi Calm Calm - N/A   Mostly Cloudy
5:53 AM 61.0 °F - 57.9 °F 90% 30.04 in 6.0 mi Calm Calm - N/A   Partly Cloudy
6:49 AM 60.8 °F - 57.2 °F 88% 30.06 in 2.0 mi Calm Calm - N/A   Mostly Cloudy
6:53 AM 61.0 °F - 57.9 °F 90% 30.06 in 2.0 mi Calm Calm - N/A   Mostly Cloudy
7:03 AM 60.8 °F - 57.2 °F 88% 30.07 in 5.0 mi Calm Calm - N/A   Mostly Cloudy
7:53 AM 64.9 °F - 61.0 °F 87% 30.07 in 4.0 mi Calm Calm - N/A   Mostly Cloudy
8:53 AM 70.0 °F - 64.0 °F 81% 30.08 in 10.0 mi South 5.8 mph - N/A   Overcast
9:53 AM 73.9 °F - 64.9 °F 73% 30.09 in 10.0 mi Variable 4.6 mph - N/A   Overcast
10:53 AM 79.0 °F - 60.1 °F 52% 30.08 in 10.0 mi South 11.5 mph - N/A   Mostly Cloudy
11:53 AM 81.0 °F 81.6 °F 60.1 °F 49% 30.07 in 10.0 mi SSW 15.0 mph - N/A   Partly Cloudy
12:53 PM 82.9 °F 83.3 °F 61.0 °F 47% 30.05 in 10.0 mi South 13.8 mph - N/A   Clear
1:53 PM 84.0 °F 84.4 °F 61.0 °F 46% 30.01 in 10.0 mi South 12.7 mph 19.6 mph N/A   Partly Cloudy
2:53 PM 84.0 °F 84.4 °F 61.0 °F 46% 29.99 in 10.0 mi SSE 10.4 mph 18.4 mph N/A   Partly Cloudy
3:53 PM 84.0 °F 84.5 °F 62.1 °F 47% 29.98 in 9.0 mi South 11.5 mph - N/A   Mostly Cloudy
4:53 PM 82.0 °F 83.0 °F 62.1 °F 51% 29.97 in 10.0 mi South 9.2 mph - N/A   Partly Cloudy
5:53 PM 80.1 °F 81.1 °F 61.0 °F 52% 29.98 in 10.0 mi South 6.9 mph - N/A   Overcast
6:53 PM 75.9 °F - 63.0 °F 64% 29.98 in 10.0 mi SE 5.8 mph - N/A   Mostly Cloudy
7:53 PM 73.9 °F - 62.1 °F 66% 29.98 in 9.0 mi SSE 5.8 mph - N/A   Mostly Cloudy
8:53 PM 73.9 °F - 61.0 °F 64% 30.00 in 9.0 mi SSE 6.9 mph - N/A   Mostly Cloudy
9:53 PM 73.0 °F - 61.0 °F 66% 29.99 in 10.0 mi SSE 8.1 mph - N/A   Mostly Cloudy
10:53 PM 73.0 °F - 61.0 °F 66% 29.99 in 10.0 mi South 5.8 mph - N/A   Overcast
11:53 PM 73.0 °F - 61.0 °F 66% 29.99 in 10.0 mi South 6.9 mph - N/A   Mostly Cloudy